Location: Doverdale
(52.2833°N, 2.2000°W)
Time: 11:51:43
(UTC+00:00)

COSMOS 2455 - Pass Details

Date: 29 October 2020
Orbit: 899 x 911 km, 67.1° (Epoch: 24 November)

Event Time Altitude Azimuth Distance (km) Brightness Sun altitude
Rises 19:55:40 0° 318° (NW) 3,553 6.8 -29.5°
Reaches altitude 10° 19:58:25 10° 327° (NNW) 2,609 5.8 -29.9°
Enters shadow 20:02:50 33° 10° (N) 1,484 3.9 -30.6°
